Theta_e
351 351 350 350 350 350 350 350 351 350 351 352 353 354 355 356 358 357 357 356 355 353 350 348 347 344 342 342 343 342 341 340 340 339 339 340 339 337 335 333 333 335
351 351 351 351 350 351 351 352 351 351 351 352 353 355 356 357 357 357 356 355 355 353 351 348 347 344 342 341 341 341 341 340 340 341 339 339 339 337 336 335 335 334
351 350 350 350 349 350 350 351 352 352 352 352 353 355 355 357 356 357 356 355 354 353 351 349 346 345 342 341 341 341 341 340 340 341 340 339 339 337 337 336 336 336
351 351 350 350 350 350 351 350 351 351 352 351 351 354 355 356 356 356 355 356 354 353 351 348 346 345 343 342 341 340 341 340 340 341 341 340 340 339 338 338 339 337
350 350 351 351 351 351 351 350 350 350 351 351 352 353 354 355 355 355 354 354 353 352 350 347 346 345 343 341 341 339 339 340 340 341 341 340 340 340 339 339 339 338
351 351 351 351 351 351 350 350 350 350 350 351 351 352 353 354 354 354 354 353 353 352 349 347 345 344 343 341 340 339 339 339 340 340 340 340 339 340 339 339 339 338
350 351 351 351 351 351 350 350 351 351 351 351 352 351 353 353 353 353 353 353 352 352 350 347 345 344 343 341 340 339 338 338 339 339 339 339 340 339 340 339 339 339
350 351 351 351 351 351 351 351 351 351 351 352 351 351 352 352 353 353 353 352 352 351 350 348 346 344 343 342 340 339 338 338 338 339 338 339 339 339 339 339 339 338
350 350 351 351 350 350 350 351 351 352 352 351 351 351 352 352 352 352 352 352 351 350 350 348 346 345 343 342 340 340 339 338 338 338 338 338 338 338 338 339 338 338
350 350 350 350 350 350 350 351 351 352 353 352 351 352 351 352 353 352 352 351 350 350 349 348 346 345 343 342 341 340 340 339 339 338 338 338 338 338 338 338 338 337
349 350 350 350 350 350 350 351 351 352 352 352 352 351 351 352 352 352 351 350 349 349 348 347 347 345 343 342 342 342 341 340 339 339 339 338 339 339 340 339 338 338
349 349 349 349 350 350 351 351 351 352 352 352 353 352 352 352 351 351 351 350 350 349 349 347 347 346 344 343 342 342 341 340 339 339 339 339 339 339 340 340 339 338
348 349 349 349 350 351 351 352 351 352 352 352 353 352 352 351 351 351 351 351 350 349 348 348 347 346 345 344 343 342 342 340 339 339 339 338 339 339 339 340 339 338
348 349 349 350 351 352 352 352 352 352 352 353 353 352 352 352 351 351 351 351 350 349 349 348 347 345 345 345 344 342 342 341 340 339 338 338 338 339 338 339 339 338
349 350 350 350 351 351 351 351 352 352 353 353 353 353 353 353 353 352 351 350 350 349 349 348 346 345 345 344 343 342 342 341 340 340 339 339 338 338 338 338 338 338
350 350 350 350 350 350 351 352 352 352 352 352 352 353 353 353 353 353 352 350 349 349 348 347 347 346 338 329 333 342 342 341 341 340 340 339 339 338 337 337 337 337
350 350 351 350 350 351 351 351 352 352 352 352 353 353 353 353 353 352 351 351 350 349 348 347 347 346 331 325 328 331 340 341 340 340 341 340 339 338 337 337 337 337
350 350 351 351 351 351 351 352 352 352 352 352 352 352 353 353 352 352 352 352 351 350 349 348 348 336 327 325 326 327 332 342 341 340 340 340 340 338 338 337 337 336
350 350 350 351 351 352 352 352 352 352 352 352 351 353 353 352 352 352 352 352 351 350 349 349 348 334 326 323 325 325 327 336 342 341 341 340 340 339 338 337 337 337
350 350 350 351 352 352 353 352 352 351 352 352 353 353 352 352 352 352 352 352 352 351 350 350 349 333 324 321 322 323 325 332 342 341 341 341 340 339 338 338 337 336
350 350 350 351 352 352 352 352 352 352 352 353 352 352 352 351 352 352 352 352 352 352 351 350 350 328 321 319 320 320 322 327 343 342 341 341 341 340 339 338 337 336
350 350 350 351 351 352 352 352 352 352 352 353 353 353 353 353 353 353 352 352 352 352 351 350 350 323 320 319 318 318 320 335 342 341 341 341 340 340 339 338 337 336
351 350 350 351 351 351 351 351 352 352 353 354 352 352 352 352 352 352 353 352 352 352 351 350 351 326 318 316 317 317 321 338 341 341 340 339 339 338 337 337 336 336
351 351 350 350 351 351 351 352 352 353 353 354 352 352 351 352 352 352 353 353 352 352 351 350 351 327 314 314 315 315 325 339 340 341 339 338 337 335 336 336 337 341
352 352 352 351 351 351 352 352 352 353 354 354 353 353 352 353 352 352 352 353 352 352 341 347 351 327 312 313 314 315 327 341 341 341 340 338 337 336 336 336 336 341
353 353 353 352 352 352 353 353 354 353 354 353 353 353 353 353 352 351 351 351 352 351 351 349 351 333 320 313 313 314 321 342 341 340 339 338 337 335 334 334 335 337
Wind_Speed
13 11 12 12 11 11 11 11 10 10 10 9 9 10 10 9 8 9 9 9 8 8 8 8 7 7 6 6 6 6 6 7 6 5 5 6 6 6 5 5 5 5
15 14 11 10 10 9 10 11 11 11 11 10 10 9 8 7 8 9 9 8 8 8 8 8 7 8 8 7 7 7 5 6 6 4 6 6 6 5 5 6 6 4
14 13 13 13 12 13 13 12 11 11 10 11 10 8 8 8 8 9 9 9 9 8 8 8 8 8 8 8 7 7 7 7 7 5 6 7 5 6 6 5 5 6
16 15 15 15 13 13 12 11 10 10 9 8 10 10 9 8 9 9 9 9 9 8 7 7 8 7 8 8 8 7 7 7 7 7 7 5 5 6 6 5 4 4
17 16 14 13 13 12 11 12 12 11 11 11 10 9 8 8 9 9 9 9 9 8 7 8 8 8 8 8 8 7 7 6 6 7 7 7 6 6 5 5 5 6
14 14 14 14 13 13 12 13 13 13 12 11 11 10 10 10 9 10 9 9 7 8 8 7 8 7 7 8 8 8 8 7 7 8 8 8 6 5 4 6 6 6
15 14 15 14 14 14 14 13 12 12 11 11 9 10 10 10 11 11 11 10 10 10 10 10 10 9 8 8 8 9 8 8 8 9 9 7 6 6 5 6 6 7
15 14 14 13 15 14 14 13 12 12 11 10 11 11 11 12 12 11 10 11 10 11 11 10 10 10 8 7 8 9 8 5 7 9 8 7 7 7 7 5 6 8
15 14 14 15 16 14 14 13 12 11 11 12 11 11 11 11 12 12 11 11 11 11 11 10 11 11 10 9 10 11 10 8 7 9 9 8 8 7 8 6 7 7
15 14 15 16 16 14 15 14 13 11 11 12 12 10 11 11 12 12 11 11 12 11 11 11 11 11 10 10 11 12 11 10 9 8 8 9 9 8 8 8 8 7
16 15 16 16 16 14 14 13 12 11 11 12 12 12 12 11 11 11 12 12 12 12 12 12 12 12 12 10 11 10 11 10 9 9 8 9 9 9 8 8 8 8
17 16 17 17 17 16 15 14 13 13 13 11 12 13 13 12 13 12 12 13 13 13 13 13 12 12 13 13 11 10 9 8 8 8 9 9 8 8 8 8 8 9
17 18 16 16 16 15 14 14 15 13 12 13 12 12 12 12 12 14 12 13 13 12 13 13 13 13 13 12 11 11 11 10 9 9 8 7 7 8 8 8 10 9
18 16 16 16 15 15 15 15 15 15 15 13 13 14 13 13 12 14 13 12 13 13 13 13 13 13 13 12 11 11 10 10 9 9 9 7 7 8 8 8 9 9
15 15 14 15 15 15 16 16 15 14 14 14 14 14 13 13 12 12 14 13 13 13 13 12 13 13 12 12 11 11 11 11 11 10 9 8 8 8 8 8 7 8
15 14 14 15 16 16 16 16 15 15 15 15 15 15 14 13 13 14 14 14 14 14 13 12 12 11 14 18 16 12 12 11 10 10 10 9 9 8 8 7 9 10
14 15 15 16 17 16 15 15 16 14 14 15 15 15 15 14 14 15 14 14 14 14 15 13 12 12 18 17 19 19 14 11 11 10 10 9 8 10 10 10 10 10
15 15 16 17 16 17 16 15 15 15 15 15 15 16 14 13 15 16 15 14 13 14 15 14 13 15 18 19 20 20 17 12 10 9 8 9 10 11 10 10 11 9
15 15 17 16 17 16 14 14 15 15 16 15 17 15 13 15 16 15 16 15 15 16 16 14 14 16 18 20 20 21 20 15 10 10 9 10 12 11 11 12 10 8
15 16 17 17 16 14 14 15 15 17 16 15 13 13 15 16 16 17 16 16 16 16 15 13 14 15 19 20 21 21 21 17 11 10 10 11 12 12 12 12 10 11
16 17 17 16 15 15 15 16 17 16 16 15 14 15 15 15 15 16 15 15 15 15 14 13 12 16 20 21 21 21 21 18 10 9 10 11 11 12 12 9 8 10
17 17 16 15 15 15 16 16 16 16 16 14 13 13 12 12 13 14 15 16 15 15 15 14 12 18 20 21 22 20 21 14 11 11 12 11 11 10 7 8 9 11
16 16 16 15 15 16 17 17 17 17 15 12 13 14 14 14 15 14 13 13 15 14 15 14 10 16 21 22 21 22 17 12 12 10 10 11 10 9 10 11 12 12
15 16 16 16 16 18 19 17 16 14 15 14 15 15 15 15 14 13 13 14 15 16 16 14 11 14 22 21 22 23 19 14 12 11 10 10 11 10 8 6 7 13
16 16 16 17 18 19 18 18 18 17 15 14 15 14 15 14 13 14 14 14 15 16 16 16 11 12 21 22 23 24 20 13 12 11 12 12 10 7 6 6 7 11
14 16 16 17 19 19 17 18 15 13 14 16 16 14 14 13 14 14 16 15 15 15 13 13 12 9 18 24 24 24 24 15 11 12 13 14 11 10 10 8 8 7
Wind_Direction
200 199 200 197 198 196 193 196 198 198 202 202 203 207 205 205 191 196 196 194 193 193 191 192 186 178 174 176 178 173 175 182 183 181 189 189 198 174 180 178 179 187
199 199 201 200 201 197 198 198 198 198 201 202 207 207 206 190 196 194 194 191 193 197 192 188 185 181 179 180 177 177 171 170 186 174 180 187 194 177 188 181 183 166
197 198 198 198 200 199 199 198 197 200 201 203 203 203 202 195 192 196 197 194 194 195 191 189 183 182 186 185 181 184 179 173 186 178 180 191 175 183 195 173 176 178
199 198 198 200 201 201 198 196 200 201 201 197 201 202 198 196 193 193 197 195 196 198 194 183 186 183 185 186 182 191 186 185 185 169 182 182 187 186 188 173 175 177
197 198 200 201 202 200 195 198 200 200 199 203 200 195 195 192 194 196 195 196 195 197 192 191 184 186 184 185 184 192 186 183 170 172 183 190 189 183 188 171 173 185
201 200 199 199 200 198 198 200 201 199 200 199 199 195 197 193 194 198 195 193 190 193 190 186 187 189 181 185 186 198 189 179 174 174 188 193 187 191 181 178 172 185
198 197 200 201 202 201 202 202 202 200 200 201 193 197 194 195 198 200 198 195 192 195 196 193 194 193 188 185 189 198 196 188 172 182 190 193 182 188 194 177 177 187
199 198 200 200 202 203 204 204 203 199 197 194 196 199 194 198 201 200 198 195 192 197 198 196 196 199 186 181 189 198 197 174 180 184 194 190 184 191 187 190 185 187
197 197 197 201 203 204 204 203 204 199 195 196 197 198 198 200 201 200 197 193 195 197 197 197 197 200 194 189 195 198 196 185 185 188 191 188 190 195 187 186 192 194
199 199 199 201 203 204 204 203 203 201 195 198 199 198 198 203 201 201 198 194 195 196 197 198 198 200 197 195 198 198 197 192 189 194 195 197 196 191 186 187 196 195
200 198 201 202 204 203 203 201 202 199 197 198 197 202 202 200 204 202 202 199 198 196 196 200 201 199 198 198 200 199 197 191 190 195 197 200 198 195 191 192 195 203
200 200 202 201 201 202 203 203 202 202 199 197 198 203 203 204 202 202 203 204 202 198 197 200 200 200 202 201 195 193 192 188 189 195 199 200 196 189 192 194 200 202
200 201 199 200 200 201 201 202 203 201 197 199 198 201 202 204 204 205 208 206 203 198 199 199 201 203 205 202 195 191 190 184 185 192 196 195 192 190 193 197 201 199
202 198 198 199 198 200 202 203 203 202 202 201 197 202 204 206 204 206 208 206 204 201 200 199 201 205 206 202 192 189 187 189 188 189 192 193 190 193 197 197 198 200
198 197 198 197 198 200 202 203 203 202 201 201 201 203 207 208 206 206 208 209 206 201 199 199 203 206 205 198 189 188 190 191 192 190 188 189 193 197 200 195 193 203
195 195 197 196 199 202 202 201 202 201 201 203 204 204 205 205 206 208 208 208 206 203 200 202 206 207 204 193 185 186 188 192 191 192 192 193 195 202 201 193 202 205
195 197 195 199 202 203 201 201 202 201 203 204 205 205 205 203 204 207 209 210 207 204 204 206 208 209 200 185 184 184 185 189 189 190 190 188 196 202 205 200 204 203
197 195 197 202 201 203 201 200 200 202 204 204 204 205 205 202 206 209 210 210 210 209 209 209 210 206 192 183 183 185 186 188 187 186 182 190 199 204 205 202 202 192
195 196 200 201 203 202 199 199 201 205 206 205 207 205 202 205 208 207 211 210 211 211 213 210 212 201 188 181 182 185 188 186 190 187 182 194 200 202 204 202 193 161
194 197 201 203 200 198 198 200 202 207 207 207 205 202 206 208 209 209 211 212 212 213 214 212 212 194 183 180 182 185 187 188 190 185 188 196 201 203 207 200 181 161
196 199 202 201 197 197 199 203 205 208 207 206 203 205 207 209 210 212 215 216 214 215 216 213 215 181 179 179 182 184 184 188 189 184 194 201 203 209 207 189 167 168
197 199 200 197 196 197 200 205 206 207 207 203 204 209 211 211 215 216 216 216 216 215 217 218 208 173 177 178 181 181 177 185 189 189 196 201 207 208 183 164 169 176
197 198 198 196 196 198 203 205 206 207 207 200 206 208 207 208 214 214 216 216 217 216 217 218 205 175 175 178 177 175 171 188 191 190 197 199 200 191 180 181 182 182
197 196 196 196 195 202 205 206 206 206 205 198 204 205 208 210 208 212 213 215 215 218 215 215 207 174 176 174 172 174 178 185 190 190 193 188 199 195 183 177 177 176
196 196 197 197 199 204 204 204 204 204 201 196 205 207 211 207 205 210 213 213 215 217 212 210 202 174 175 169 173 177 181 186 185 199 196 203 200 179 167 165 180 194
196 197 199 200 204 206 206 207 204 200 199 202 206 207 207 204 205 209 211 213 211 214 210 202 192 161 176 171 175 179 183 182 185 192 206 212 204 188 186 186 187 194